This demonstration page uses our WeatherBlox Daily Observations layout. Learn more.

Left ArrowRight Arrow

Hourly Observations for May 9, 2018

Temp ( °F °C ) Dew Point ( °F °C ) Humidity (%) Winds ( mph kmh ) Pressure ( in mb ) Visibility ( mi km ) Precip ( " mm )
2:56 am 02:56 Clear 58 14.4 49 9.4 72 72 NW 10 17 29.86 1011 10 16 0.00 0.00
3:56 am 03:56 Clear 55 12.8 48 8.9 77 77 NW 6 9 29.87 1012 10 16 0.00 0.00
4:56 am 04:56 Clear 51 10.6 47 8.3 86 86 WNW 6 9 29.88 1012 10 16 0.00 0.00
5:56 am 05:56 Clear 54 12.2 49 9.4 83 83 WNW 10 17 29.89 1012 10 16 0.00 0.00
6:56 am 06:56 Sunny 53 11.7 49 9.4 86 86 WNW 9 15 29.90 1013 10 16 0.00 0.00
7:20 am 07:20 Mostly Sunny 55 13 48 9 77 77 WNW 12 19 29.91 1013 10 16 0.00 0.00
7:56 am 07:56 Sunny 57 13.9 51 10.6 81 81 NW 13 20 29.90 1013 10 16 0.00 0.00
8:56 am 08:56 Sunny 62 16.7 53 11.7 73 73 WNW 10 17 29.92 1013 10 16 0.00 0.00
9:56 am 09:56 Sunny 69 20.6 48 8.9 47 47 NW 14 22 29.91 1013 10 16 0.00 0.00
10:18 am 10:18 Partly Cloudy 72 22 48 9 44 44 NNW 15 24 29.85 1011 9 14 0.00 0.00
10:56 am 10:56 Sunny 73 22.8 49 9.4 43 43 NNW 13 20 29.91 1013 10 16 0.00 0.00
11:56 am 11:56 Sunny 76 24.4 50 10 40 40 NW 13 20 29.90 1013 10 16 0.00 0.00
12:56 pm 12:56 Sunny 80 26.7 49 9.4 34 34 WNW 12 19 29.88 1012 10 16 0.00 0.00
1:56 pm 13:56 Sunny 82 27.8 49 9.4 32 32 NNW 13 20 29.85 1011 10 16 0.00 0.00
2:56 pm 14:56 Mostly Sunny 83 28.3 49 9.4 31 31 WNW 15 24 29.84 1011 10 16 0.00 0.00
3:56 pm 15:56 Mostly Sunny 84 28.9 45 7.2 25 25 WNW 14 22 29.83 1010 10 16 0.00 0.00
4:56 pm 16:56 Partly Cloudy 84 28.9 46 7.8 27 27 NNW 12 19 29.84 1010 10 16 0.00 0.00
5:56 pm 17:56 Sunny 82 27.8 44 6.7 26 26 N 14 22 29.84 1011 10 16 0.00 0.00
6:56 pm 18:56 Sunny 83 28.3 43 6.1 24 24 NNW 10 17 29.83 1010 10 16 0.00 0.00
7:22 pm 19:22 Sunny 81 27 46 8 30 30 NE 13 20 29.74 1007 10 16 0.00 0.00
7:56 pm 19:56 Sunny 77 25 47 8.3 35 35 NE 13 20 29.84 1011 10 16 0.00 0.00
8:56 pm 20:56 Clear 70 21.1 47 8.3 44 44 NE 10 17 29.87 1012 10 16 0.00 0.00
9:56 pm 21:56 Clear 64 17.8 47 8.3 54 54 ENE 7 11 29.88 1012 10 16 0.00 0.00
10:56 pm 22:56 Clear 64 17.8 46 7.8 52 52 NNE 5 7 29.90 1012 10 16 0.00 0.00

Powered by AerisWeather